Fort Campbell, TN

12:49 AM CST on February 07, 2016 (GMT -0600)
Outlaw

Weather History for KCKV - August, 2012

Change the Weather History Date:

Saturday, August 25, 2012

  Actual Average Record
Temperature  
Mean Temperature 78 °F -  
Max Temperature 90 °F - 102 °F (1948)
Min Temperature 65 °F - 50 °F (2015)
Degree Days  
Heating Degree Days 0    
Month to date heating degree days 0  
Since 1 July heating degree days 0  
Cooling Degree Days 13    
Month to date cooling degree days 287  
Growing Degree Days 28 (Base 50)    
Moisture  
Dew Point 66 °F    
Average Humidity 68    
Maximum Humidity 93    
Minimum Humidity 43    
Precipitation  
Precipitation 0.00 in - 1.41 in (1950)
Month to date precipitation 1.33  
Sea Level Pressure  
Sea Level Pressure 30.06 in    
Wind  
Wind Speed 4 mph (SSE)    
Max Wind Speed 15 mph    
Max Gust Speed 21 mph    
Visibility 9 miles    
Events Thunderstorm    
T = Trace of Precipitation, MM = Missing Value Source: NWS Daily Summary

Daily Weather History Graph

Daily Weather History Graph

Search for Another Location

Airport or City:

Trip Planner

Search our weather history database for the weather conditions in past years. The results will help you decide how hot, cold, wet, or windy it might be!

Date:

Astronomy

Aug. 25, 2012 Rise Set
Actual Time 6:15 AM CDT 7:26 PM CDT
Civil Twilight 5:48 AM CDT 7:53 PM CDT
Nautical Twilight 5:16 AM CDT 8:25 PM CDT
Astronomical Twilight 4:43 AM CDT 8:58 PM CDT
Moon 2:54 PM CDT (8/25) 12:03 AM CDT (8/25)
Length of Visible Light 14h 04m
Length of Day
13h 11m
Waxing Gibbous, 63% of the Moon is Illuminated
Aug 25
Waxing Gibbous
Aug 31
Full
Sep 8
Last Quarter
Sep 15
New
Sep 22
First Quarter

Hourly Weather History & Observations

Time (CDT) Temp. Heat Index Dew Point Humidity Pressure Visibility Wind Dir Wind Speed Gust Speed Precip Events Conditions
12:52 AM 68.0 °F - 64.0 °F 87% 30.04 in 10.0 mi Calm Calm - N/A   Clear
1:52 AM 68.0 °F - 64.9 °F 90% 30.04 in 9.0 mi Calm Calm - N/A   Clear
2:52 AM 66.9 °F - 64.9 °F 93% 30.04 in 7.0 mi ESE 3.5 mph - N/A   Clear
3:52 AM 66.9 °F - 64.0 °F 90% 30.03 in 6.0 mi Calm Calm - N/A   Clear
4:52 AM 66.9 °F - 64.0 °F 90% 30.04 in 6.0 mi ESE 3.5 mph - N/A   Clear
5:52 AM 66.0 °F - 63.0 °F 90% 30.05 in 6.0 mi Calm Calm - N/A   Clear
6:52 AM 66.0 °F - 63.0 °F 90% 30.07 in 3.0 mi East 3.5 mph - N/A   Clear
7:52 AM 72.0 °F - 66.9 °F 84% 30.09 in 6.0 mi ESE 4.6 mph - N/A   Haze
8:52 AM 75.9 °F - 66.0 °F 71% 30.09 in 10.0 mi South 4.6 mph - N/A   Clear
9:52 AM 78.1 °F - 66.9 °F 68% 30.10 in 10.0 mi SE 3.5 mph - N/A   Clear
10:52 AM 82.0 °F 84.9 °F 68.0 °F 62% 30.10 in 10.0 mi South 4.6 mph - N/A   Clear
11:52 AM 84.9 °F 88.2 °F 68.0 °F 57% 30.08 in 10.0 mi Variable 3.5 mph - N/A   Clear
12:52 PM 88.0 °F 92.1 °F 69.1 °F 53% 30.06 in 10.0 mi ESE 9.2 mph - N/A   Clear
1:52 PM 89.1 °F 92.9 °F 68.0 °F 50% 30.05 in 10.0 mi SSE 9.2 mph - N/A   Scattered Clouds
2:52 PM 88.0 °F 89.6 °F 64.9 °F 46% 30.03 in 10.0 mi ESE 9.2 mph - N/A   Scattered Clouds
3:52 PM 88.0 °F 89.3 °F 64.0 °F 45% 30.02 in 10.0 mi South 10.4 mph - N/A   Scattered Clouds
4:52 PM 87.1 °F 87.8 °F 63.0 °F 44% 30.03 in 10.0 mi SSW 11.5 mph - N/A   Clear
5:11 PM 87.8 °F 89.4 °F 64.4 °F 46% 30.05 in 10.0 mi South 11.5 mph - N/A Thunderstorm Scattered Clouds
5:26 PM 82.4 °F 84.6 °F 66.2 °F 58% 30.06 in 10.0 mi SE 9.2 mph 17.3 mph N/A   Mostly Cloudy
5:52 PM 82.0 °F 84.5 °F 66.9 °F 60% 30.04 in 10.0 mi SSE 9.2 mph - N/A   Clear
6:52 PM 78.1 °F - 64.9 °F 64% 30.05 in 10.0 mi South 5.8 mph - N/A   Clear
7:52 PM 75.0 °F - 66.0 °F 73% 30.06 in 10.0 mi Calm Calm - N/A   Clear
8:52 PM 75.0 °F - 66.0 °F 73% 30.07 in 10.0 mi Calm Calm - N/A   Clear
9:52 PM 71.1 °F - 66.0 °F 84% 30.07 in 10.0 mi Calm Calm - N/A   Clear
10:52 PM 70.0 °F - 66.9 °F 90% 30.08 in 8.0 mi South 3.5 mph - N/A   Clear
11:52 PM 69.1 °F - 66.9 °F 93% 30.08 in 8.0 mi SE 3.5 mph - N/A   Clear